Regional Weather Roundup
Issued by NWS State College, PA

Home | Current Version | Previous Version | Graphics & Text | Print | Product List | Glossary On
Versions: 1 2 3 4 5 6 7 8 9 10 11 12 13 14 15 16 17 18 19 20 21 22 23 24 25 26 27 28 29 30 31 32 33 34 35 36 37 38 39 40 41 42 43 44 45 46 47 48 49 50
000
ASUS41 KCTP 260303
RWRCTP

REGIONAL WEATHER ROUNDUP
NATIONAL WEATHER SERVICE STATE COLLEGE PA
1100 PM EDT SUN JUN 25 2017

Note: "fair" indicates few or no clouds below 12,000 feet with no
significant weather and/or obstructions to visibility.

* = STATION THAT DOES NOT REPORT PRECIPITATION /E.G. RAIN...SNOW...ETC/
    THUNDER OR FOG.

PAZ002>004-007>009-013>016-020>023-029>032-260400-
WESTERN PENNSYLVANIA

CITY           SKY/WX    TMP DP  RH WIND       PRES   REMARKS
ERIE           CLOUDY    63  51  65 SW6       30.04R
MEADVILLE      PTCLDY    58  49  72 S3        30.07R
FRANKLIN*      CLEAR     57  43  58 W3        30.08S
NEW CASTLE     FAIR      57  50  77 SW5       30.09R
BEAVER COUNTY  NOT AVBL
BUTLER*        CLEAR     57  45  62 CALM      30.09R
PITTSBURGH INT PTCLDY    63  45  51 W5        30.08S
PITTSBURGH     MOCLDY    64  42  44 W6        30.09R
INDIANA*       MOCLDY    57  55  94 CALM      30.11R
LATROBE        PTCLDY    59  57  94 S3        30.10R
WASHINGTON CO* PTCLDY    54  48  82 CALM      30.13R
$$

PAZ004>006-010>012-017>019-024>028-033>037-041-042-045-046-049>053-260400-
CENTRAL PENNSYLVANIA

CITY           SKY/WX    TMP DP  RH WIND       PRES   REMARKS
BRADFORD       CLEAR     46  45  96 CALM      30.07R
DUBOIS         CLEAR     58  45  62 W3        30.07R
CLEARFIELD     PTCLDY    61  48  62 NW5       30.07R
JOHNSTOWN      PTCLDY    58  49  72 W6        30.10R
ALTOONA        CLEAR     59  53  80 CALM      30.08S
STATE COLLEGE  PTCLDY    64  49  59 NW5       30.06R
WILLIAMSPORT   PTCLDY    64  52  64 SW6       30.02R
SELINSGROVE    CLOUDY    64  56  75 NW5       30.03R
FT INDIANTOWN  MOCLDY    67  51  57 SW6       30.02R
CAPITAL CITY   CLOUDY    71  47  42 SW5       30.02S
HARRISBURG     MOCLDY    74  49  41 W9        30.01S
YORK           MOCLDY    64  53  67 CALM      30.03S
$$

PAZ038>040-043-044-047-048-054-055-060>062-067>071-260400-
EASTERN PENNSYLVANIA

CITY           SKY/WX    TMP DP  RH WIND       PRES   REMARKS
SCRANTON       CLEAR     64  51  62 N5        30.04R
MOUNT POCONO   CLEAR     58  50  75 NW8       30.05R
ALLENTOWN      CLEAR     68  50  52 W3        30.00R
QUAKERTOWN*    CLEAR     64  55  72 CALM      30.02R
READING        CLEAR     70  51  51 W3        30.00R
LANCASTER      PTCLDY    67  52  58 W6        30.02S
COATESVILLE    CLEAR     68  48  49 W5        30.04S
POTTSTOWN      CLEAR     66  51  58 CALM      30.03R
BLUE BELL      CLEAR     68  55  64 CALM      30.02R
DOYLESTOWN     CLEAR     71  52  50 VRB5      30.00R
WILLOW GROVE   NOT AVBL
NORTH PHILA    PTCLDY    76  52  43 W8        30.00R
PHILADELPHIA   PTCLDY    77  49  37 W10       30.00R
$$




USA.gov is the U.S. government's official web portal to all federal, state and local government web resources and services.